Lid_Strength_Index
-1 -1 -1 1 6 7 9 8 6 6 6 4 4 5 5 6 9 11 2 1 0 -0 -1 -1 -1 -1 -1 -1 -1 -2 -2 -2 -2 -2 -2 -2 -2 -2 -2 -2 -2 -2 -2 -2 -2 -2 -2 -2 -2
-1 0 0 3 8 10 9 6 7 6 5 4 5 5 6 8 4 4 3 1 0 -0 -1 -1 -1 -1 -1 -1 -1 -2 -2 -2 -2 -2 -2 -2 -2 -2 -2 -2 -2 -2 -2 -2 -2 -2 -2 -2 -2
-0 -0 3 6 8 10 10 7 6 5 5 5 6 5 6 7 4 3 1 0 1 -0 -1 -1 -1 -1 -1 -1 -1 -1 -1 -2 -2 -2 -2 -2 -2 -2 -2 -2 -2 -2 -2 -2 -2 -2 -2 -2 -2
1 2 3 7 8 7 7 6 5 5 4 4 5 8 5 3 3 2 0 -0 1 0 -1 -1 -1 -1 -1 -1 -1 -1 -1 -1 -1 -2 -2 -2 -2 -2 -2 -2 -2 -2 -2 -2 -2 -2 -2 -2 -3
1 3 7 8 8 7 5 5 5 6 5 5 5 7 7 3 1 1 1 0 1 1 -1 -1 -0 -1 -1 -1 -1 -1 -1 -1 -1 -2 -2 -2 -2 -2 -2 -2 -2 -2 -2 -3 -2 -2 -2 -2 -3
4 3 8 9 8 6 5 4 5 6 5 5 5 7 7 2 2 1 0 0 0 0 -1 -1 -1 -1 -1 -1 -1 -1 -1 -1 -1 -1 -1 -2 -2 -2 -2 -2 -2 -2 -2 -2 -2 -2 -2 -2 -2
5 6 8 8 8 9 7 5 6 6 6 6 4 8 6 4 3 2 1 1 1 1 1 0 -0 -1 -1 -1 -1 -1 -1 -1 -1 -1 -1 -2 -2 -2 -2 -2 -2 -2 -2 -2 -2 -3 -3 -2 -2
3 5 8 7 8 10 5 5 5 5 6 3 3 7 8 4 2 3 3 2 1 1 2 1 1 0 -1 -1 -1 -1 -1 -1 -1 -1 -2 -2 -2 -2 -2 -2 -2 -2 -2 -2 -2 -3 -3 -2 -1
2 7 8 8 8 7 4 6 4 4 5 5 5 5 4 2 2 2 4 4 4 3 3 3 2 1 -0 -1 -1 -1 -1 -1 -1 -1 -1 0 0 0 -1 -2 -2 -3 -2 -2 -3 -2 -2 -1 -1
5 7 8 5 5 6 5 5 6 6 6 6 6 4 3 3 3 3 4 5 5 4 3 2 2 3 3 3 2 2 1 -0 -0 0 -1 0 -1 -1 -0 -2 -2 -2 -2 -2 -2 -2 -2 -2 -1
5 7 5 5 5 4 6 6 5 6 9 7 7 6 4 4 4 4 4 4 4 4 4 4 4 4 4 3 3 1 -0 -1 -0 -1 -1 -1 -1 -1 -1 -2 -2 -2 -1 1 1 0 -1 -2 -1
6 5 5 5 4 5 6 5 6 6 7 5 5 4 4 4 4 4 4 4 4 4 3 3 3 3 3 3 2 1 0 -0 0 0 -0 -2 -2 -2 -1 -1 -1 -2 -1 -1 -1 -2 -2 -1 -1
6 5 5 4 4 5 5 6 6 7 5 4 4 4 4 4 4 3 3 4 4 4 4 4 3 4 3 3 2 1 2 1 1 -0 -1 -1 -1 -2 -2 -2 -1 -2 -2 -1 -2 -2 -1 -1 -0
5 5 5 5 5 5 6 6 6 6 4 5 5 5 5 4 3 3 2 4 4 4 4 5 5 4 4 3 3 2 1 1 -0 -1 -1 -2 -2 -2 -1 -1 -1 -1 -2 -2 -2 -1 -1 -0 -0
4 6 5 5 5 6 5 9 8 5 5 5 5 4 4 4 3 3 2 2 3 4 4 5 5 4 3 3 3 3 1 -0 -1 -1 -3 -2 -2 -2 -2 -1 -1 -1 -2 -2 -2 -1 -1 -0 1
6 6 9 7 5 5 7 13 7 5 5 5 5 4 4 3 3 2 2 2 2 3 3 3 2 1 0 -1 -1 -1 -1 -1 -1 -2 -2 -2 -1 -2 -2 -1 -1 -2 -2 -1 -1 -1 -0 1 1
7 9 10 8 5 6 8 12 6 5 5 6 5 4 4 4 3 2 2 1 1 1 0 1 -0 -0 -0 -1 -1 -1 -2 -1 -1 -2 -2 -1 -1 -2 -1 -1 -1 -2 -1 -1 -1 -1 -0 2 3
10 9 8 9 7 6 8 8 7 5 5 5 5 4 4 4 3 2 2 1 1 1 0 0 -0 -0 -1 -1 -1 -1 -1 -1 -1 -1 -1 -1 -1 -2 -1 -1 -1 -1 -1 -1 -1 -0 2 2 2
7 8 8 7 6 7 7 8 7 6 6 6 5 5 4 4 2 2 2 1 1 0 0 0 0 -0 -0 0 1 0 0 -0 -0 -1 -1 -1 -1 -1 -2 -1 -1 -1 -1 -1 -0 1 2 3 3
7 8 8 7 6 7 7 7 7 6 6 5 5 5 4 4 3 2 2 1 1 1 1 1 0 0 -0 -0 -0 -0 -0 -0 -1 -1 -1 -1 -1 -1 -1 -1 -1 -1 -0 -0 0 1 3 3 3
8 8 9 9 7 6 7 8 7 6 5 5 5 4 4 4 4 3 2 2 1 1 1 1 0 0 -0 -0 -0 -0 -1 -0 0 0 -0 -1 -1 -1 -1 -1 -1 -1 -1 0 1 2 3 4 3
9 6 8 8 9 11 7 12 8 7 7 6 5 5 4 4 3 3 2 2 2 1 1 0 0 0 -0 -0 0 0 1 2 1 0 -0 -0 -1 -1 -1 -1 -1 -1 -0 1 2 3 3 3 4
8 6 7 7 9 9 9 11 10 7 8 7 6 5 4 3 3 3 3 2 1 1 1 1 0 0 -0 -0 0 0 1 0 0 0 0 -0 -1 -1 -1 -1 -1 -0 1 2 2 3 3 3 4
6 7 7 7 9 13 10 10 11 9 7 6 5 4 4 4 3 2 2 2 2 1 1 1 1 1 0 0 0 0 1 1 1 1 1 1 0 -0 -0 0 1 2 3 3 3 3 4 5 4
6 8 13 14 14 14 9 10 9 8 6 6 5 4 4 3 3 3 3 2 2 2 1 1 1 1 0 0 0 0 0 1 1 1 1 1 1 2 3 3 3 4 5 6 5 5 5 5 5
8 8 12 19 18 14 10 12 9 6 5 4 4 4 3 3 3 3 3 2 2 2 1 1 1 1 1 1 1 0 1 1 1 1 0 1 2 4 4 4 4 5 6 5 5 5 6 5 4
8 10 7 11 11 13 11 9 7 6 6 5 5 4 4 3 3 3 2 2 2 2 2 1 1 1 1 1 1 1 0 1 1 0 -0 1 3 3 3 4 4 5 5 6 6 6 6 6 4
7 6 11 10 17 17 12 11 10 8 7 6 5 5 4 3 3 3 2 2 2 1 1 1 1 1 1 1 1 1 1 0 0 0 1 2 3 3 4 4 5 5 5 6 7 6 6 5 6
8 9 9 9 10 15 15 12 7 7 6 6 5 4 4 3 3 3 2 2 2 1 1 1 1 1 1 1 1 1 1 1 0 1 2 2 3 3 3 4 4 6 7 7 7 6 5 5 4
7 8 8 13 13 12 13 12 6 6 5 5 5 4 4 3 3 3 3 2 2 2 2 1 1 1 1 1 1 1 1 2 2 2 2 2 2 2 3 4 6 7 7 6 5 6 6 6 6